This is the latest recevied weather packets stored in our database for station/object K6LOT-13. If no packets are shown the sender has not sent any weather packets the latest 10 day(s).
| Time | Temp. | Humidity | Pressure | Rain* | Wind** | Luminosity | Snow |
|---|---|---|---|---|---|---|---|
| 1777926817 | 22.78° C | 45% | 1016.8 hPa | 0 mm | - | - | - |
| 1777926541 | 22.78° C | 45% | 1016.9 hPa | 0 mm | - | - | - |
| 1777926203 | 22.78° C | 45% | 1016.7 hPa | 0 mm | - | - | - |
| 1777925893 | 22.78° C | 47% | 1016.7 hPa | 0 mm | - | - | - |
| 1777925571 | 22.22° C | 48% | 1016.7 hPa | 0 mm | - | - | - |
| 1777925249 | 22.22° C | 47% | 1016.8 hPa | 0 mm | - | - | - |
| 1777924944 | 22.22° C | 47% | 1016.9 hPa | 0 mm | - | - | - |
| 1777924633 | 22.22° C | 47% | 1016.9 hPa | 0 mm | - | - | - |
| 1777924324 | 22.22° C | 48% | 1016.9 hPa | 0 mm | - | - | - |
| 1777924016 | 22.22° C | 47% | 1017 hPa | 0 mm | - | - | - |
| 1777923706 | 22.22° C | 48% | 1017 hPa | 0 mm | - | - | - |
| 1777923399 | 22.22° C | 48% | 1017 hPa | 0 mm | - | - | - |
| 1777923090 | 21.67° C | 47% | 1017.1 hPa | 0 mm | - | - | - |
| 1777922783 | 21.67° C | 50% | 1017.1 hPa | 0 mm | - | - | - |
| 1777922473 | 21.11° C | 50% | 1017.1 hPa | 0 mm | - | - | - |
| 1777922197 | 21.11° C | 50% | 1017 hPa | 0 mm | - | - | - |
| 1777921857 | 20.56° C | 52% | 1017 hPa | 0 mm | - | - | - |
| 1777921580 | 20.56° C | 52% | 1017.1 hPa | 0 mm | - | - | - |
| 1777921241 | 20.56° C | 52% | 1017.2 hPa | 0 mm | - | - | - |
| 1777920934 | 20.56° C | 52% | 1017.2 hPa | 0 mm | - | - | - |
| 1777920627 | 20° C | 54% | 1017.2 hPa | 0 mm | - | - | - |
| 1777920321 | 20° C | 54% | 1017.3 hPa | 0 mm | - | - | - |
| 1777920046 | 20° C | 54% | 1017.2 hPa | 0 mm | - | - | - |
| 1777919710 | 20° C | 54% | 1017.2 hPa | 0 mm | - | - | - |
| 1777919093 | 20.56° C | 53% | 1017.2 hPa | 0 mm | - | - | - |
* Rain latest hour (hover to see other rain measurements)
** Current wind speed in m/s (hover to see current wind gust speed)